#timestamp,LO_Frequency,Hit 
1500519615.6,286046990.0,N
1500519635.5,286046990.0,N
1500519655.3,286046989.6,N
1500519675.2,286046989.4,N
1500519695.0,286046986.9,N
1500519695.9,286046986.9,N
1500519715.7,286046985.3,N
1500519735.6,286046985.4,N
1500519755.4,286046985.8,N
1500519775.3,286046988.4,N
1500519795.1,286046987.5,N
1500519815.8,286046987.8,N
1500519835.7,286046988.1,N
1500519855.5,286046985.7,N
1500519875.4,286046986.0,N
1500519895.2,286046987.7,N
1500519915.0,286046987.4,N
1500519915.9,286046987.4,N
1500519935.8,286046987.6,N
1500519955.6,286046987.7,N
1500519975.4,286046987.1,N
1500519995.3,286046989.8,N
1500520015.1,286046988.1,N
1500520035.9,286046988.1,N
1500520055.7,286046987.4,N
1500520075.5,286046988.4,N
1500520095.4,286046988.4,N
1500520115.2,286046985.4,N
1500520135.0,286046985.7,N
1500520135.9,286046985.7,N
1500520155.8,286046985.9,N
1500520175.6,286046987.8,N
1500520195.5,286046985.8,N
1500520215.3,286046986.4,N
1500520235.1,286046988.3,N
1500520255.9,286046987.7,N
1500520275.7,286046986.2,N
1500520295.5,286046988.3,N
1500520315.4,286046987.7,N
1500520335.2,286046987.4,N
1500520355.0,286046987.5,N
1500520356.0,286046987.5,N
1500520375.8,286046987.4,N
1500520395.6,286046987.7,N
1500520415.5,286046989.6,N
1500520435.3,286046989.5,N
1500520455.1,286046987.6,N
1500520475.9,286046987.0,N
1500520495.7,286046987.3,N
1500520515.6,286046989.5,N
1500520535.4,286046990.0,N
1500520555.2,286046989.9,N
1500520575.1,286046989.4,N
1500520576.0,286046989.4,N
1500520595.8,286046987.0,N
1500520615.6,286046988.4,N
1500520635.5,286046988.3,N
1500520655.3,286046985.8,N
1500520675.2,286046986.9,N
1500520695.9,286046991.4,N
1500520715.7,286046991.0,N
1500520735.6,286046986.9,N
1500520755.4,286046987.5,N
1500520775.2,286046987.5,N
1500520795.1,286046987.1,N
1500520796.0,286046987.1,N
1500520815.8,286046989.6,N
1500520835.7,286046987.8,N
1500520855.5,286046989.8,N
1500520875.3,286046988.1,N
1500520895.2,286046988.1,N
1500520915.0,286046988.2,N
1500520915.9,286046988.2,N
1500520935.7,286046987.2,N
1500520955.6,286046987.9,N
1500520975.4,286046987.5,N
1500520995.3,286046983.7,N
1500521015.1,286046988.2,N
1500521016.0,286046988.2,N
1500521035.8,286046988.4,N
1500521055.7,286046987.5,N
1500521075.5,286046988.7,N
1500521095.3,286046990.7,N
1500521115.2,286046989.4,N
1500521135.0,286046990.9,N
1500521135.9,286046990.9,N
1500521155.8,286046988.6,N
1500521175.6,286046991.6,N
1500521195.4,286046989.9,N
1500521215.3,286046988.1,N
1500521235.1,286046986.0,N
1500521255.9,286046986.6,N
1500521275.7,286046988.4,N
1500521295.5,286046987.7,N
1500521315.4,286046988.4,N
1500521335.2,286046988.1,N
1500521355.0,286046988.0,N
1500521356.0,286046988.0,N
1500521375.8,286046989.9,N
1500521395.6,286046987.4,N
1500521415.5,286046985.3,N
1500521435.3,286046987.5,N
1500521455.1,286046989.5,N
1500521475.9,286046989.8,N
1500521495.7,286046989.7,N
1500521515.6,286046988.2,N
1500521535.4,286046987.7,N
1500521555.2,286046990.0,N
1500521575.1,286046987.3,N
1500521576.0,286046987.3,N
1500521595.8,286046987.6,N
1500521615.6,286046989.4,N
1500521635.5,286046989.2,N
1500521655.3,286046990.8,N
1500521675.2,286046991.1,N
1500521695.9,286046988.6,N
1500521715.7,286046990.8,N
1500521735.6,286046990.7,N
1500521755.4,286046990.5,N
1500521775.2,286046991.0,N
1500521795.1,286046990.3,N
1500521796.0,286046990.3,N
1500521815.8,286046991.5,N
1500521835.7,286046988.9,N
1500521855.5,286046991.4,N
1500521875.3,286046990.3,N
1500521895.2,286046990.8,N
1500521915.0,286046991.2,N
1500521915.9,286046991.2,N
1500521935.8,286046988.9,N
1500521955.6,286046990.6,N
1500521975.4,286046990.9,N
1500521995.3,286046992.8,N
1500522015.1,286046990.3,N
1500522035.8,286046992.4,N
1500522055.7,286046990.5,N
1500522075.5,286046990.4,N
1500522095.4,286046990.8,N
1500522115.2,286046991.2,N
1500522135.0,286046991.2,N
1500522135.9,286046991.2,N
1500522155.8,286046990.7,N
1500522175.6,286046990.3,N
1500522195.4,286046990.8,N
1500522215.3,286046990.1,N
1500522235.1,286046992.8,N
1500522255.9,286046991.0,N
1500522275.7,286046988.7,N
1500522295.5,286046988.7,N
1500522315.4,286046988.5,N
1500522335.2,286046990.7,N
1500522355.0,286046990.1,N
1500522355.9,286046990.1,N
1500522375.8,286046990.7,N
1500522395.6,286046991.4,N
1500522415.5,286046991.6,N
1500522435.3,286046990.8,N
1500522455.1,286046990.8,N
1500522475.9,286046989.3,N
1500522495.7,286046990.8,N
1500522515.5,286046992.5,N
1500522535.4,286046990.2,N
1500522555.2,286046990.2,N
1500522575.1,286046990.8,N
1500522576.0,286046990.8,N
1500522595.8,286046991.2,N
1500522615.6,286046988.5,N
1500522635.5,286046992.7,N
1500522655.3,286046990.7,N
1500522675.1,286046990.4,N
1500522695.9,286046990.7,N
1500522715.7,286046991.1,N
1500522735.6,286046990.1,N
1500522755.4,286046992.5,N
1500522775.2,286046992.1,N
1500522795.1,286046994.6,N
1500522796.0,286046994.6,N
1500522815.8,286046992.8,N
1500522835.7,286046991.0,N
1500522855.5,286046993.2,N
1500522875.3,286046990.5,N
1500522895.2,286046992.4,N
1500522915.9,286046992.6,N
1500522935.7,286046992.1,N
1500522955.6,286046992.3,N
1500522975.4,286046990.3,N
1500522995.3,286046990.8,N
1500523015.1,286046990.6,N
1500523016.0,286046990.6,N
1500523035.8,286046990.1,N
1500523055.7,286046992.4,N
1500523075.5,286046990.3,N
1500523095.3,286046993.2,N
1500523115.2,286046990.5,N
1500523135.0,286046990.5,N
1500523135.9,286046990.5,N
1500523155.8,286046990.2,N
1500523175.6,286046990.4,N
1500523195.4,286046992.8,N
